[[{"header":{"parameterUnit":"m.s-1","parameterCategory":1,"la1":30.2991,"la2":30.254,"lo1":-89.0895,"lo2":-89.0444,"dy":0.0017,"dx":0.0017,"nx":28,"ny":28,"refTime":"2023-07-22T21:00:00:Z","depth":0,"parameterNumber":2,"parameterNumberName":"U-component_of_WINDS"},"data":[0,0,0,0,0,0,0,0,0,0,0,0,0,0,0,0,0,0,0,0,0,0,0,0,0,0,0,0,0,0,0,0,0,0,0,0,0,0,0,0,0,0,0,0,0,0,0,0,0,0,0,0,0,0,0,0,0,0,-1.6387,-1.6386,0,-1.6302,-1.6301,-1.63,-1.626,-1.626,-1.626,-1.626,-1.617,-1.6168,-1.6165,0,0,0,0,0,0,0,0,0,0,0,0,0,-1.6508,-1.6506,-1.6387,-1.6386,-1.6385,-1.6302,-1.6301,-1.63,-1.626,-1.626,-1.626,-1.626,-1.6171,-1.6168,-1.6165,0,0,0,0,0,0,0,0,0,0,0,0,0,-1.6443,-1.6506,-1.6387,-1.6355,-1.6351,-1.6303,-1.6301,-1.63,-1.626,-1.626,-1.626,-1.626,-1.6172,-1.6168,-1.6165,-1.6141,0,0,-1.6153,-1.6152,0,0,0,0,0,0,0,0,-1.6447,-1.6438,-1.636,-1.6357,-1.6353,-1.6292,-1.6311,-1.6246,-1.626,-1.6294,-1.626,-1.626,-1.621,-1.6203,-1.6187,-1.6137,-1.6133,-1.6153,-1.6151,-1.6149,-1.6148,0,0,0,0,0,0,0,-1.6451,-1.6442,-1.6353,-1.6359,-1.6355,-1.6343,-1.6334,-1.6299,-1.6253,-1.6291,-1.6288,-1.6279,-1.6208,-1.6191,-1.6185,-1.6131,-1.6153,-1.615,-1.6148,-1.6146,-1.6055,-1.6055,0,0,0,0,0,0,-1.6462,-1.6446,-1.6356,-1.6351,-1.6401,-1.6341,-1.633,-1.6311,-1.6253,-1.6244,-1.6279,-1.6277,-1.6197,-1.6189,-1.6182,-1.6149,-1.6149,-1.6146,-1.6144,-1.6055,-1.6055,-1.6055,0,0,0,0,0,0,-1.6464,-1.6454,-1.6359,-1.6397,-1.6384,-1.6339,-1.6317,-1.6309,-1.6292,-1.6244,-1.6235,-1.627,-1.6197,-1.6187,-1.6151,-1.6145,-1.6144,-1.6141,-1.6056,-1.6055,-1.6055,-1.6084,0,0,0,0,0,0,-1.6468,-1.6455,-1.6447,-1.6398,-1.6383,-1.6332,-1.6317,-1.6308,-1.6287,-1.6284,-1.6233,-1.6225,-1.6196,-1.6157,-1.6148,-1.614,-1.6138,-1.6056,-1.6055,-1.6055,-1.6083,-1.6085,-1.6086,0,0,0,0,0,-1.6473,-1.6458,-1.6447,-1.6436,-1.6371,-1.6331,-1.6323,-1.6291,-1.6286,-1.6277,-1.6245,-1.6227,-1.6148,-1.6154,-1.6143,-1.6134,-1.6056,-1.6056,-1.6055,-1.6083,-1.6084,-1.6086,0,0,0,0,0,0,-1.6507,-1.6451,-1.6438,-1.6407,-1.6374,-1.6325,-1.6312,-1.6294,-1.6261,-1.6259,-1.622,-1.6209,-1.6177,-1.6152,-1.6159,-1.6107,-1.61,-1.6097,-1.6125,-1.6126,-1.6127,-1.6133,-1.6135,0,0,0,0,0,-1.6511,-1.6484,-1.6437,-1.6414,-1.6398,-1.6358,-1.6339,-1.6318,-1.6282,-1.6267,-1.6233,-1.6198,-1.6165,-1.6144,-1.6111,-1.608,-1.6067,-1.6068,-1.607,-1.6071,-1.6069,-1.6049,-1.6048,-1.6053,-1.6053,-1.6053,0,0,-1.6519,-1.6485,-1.647,-1.642,-1.6392,-1.6364,-1.6347,-1.6318,-1.6296,-1.6262,-1.6227,-1.6201,-1.6159,-1.6125,-1.6108,-1.6103,-1.6065,-1.607,-1.6072,-1.6069,-1.6048,-1.6048,-1.6047,-1.6053,-1.6053,-1.6053,0,0,-1.6519,-1.6491,-1.6469,-1.6441,-1.64,-1.6373,-1.6367,-1.632,-1.6302,-1.6266,-1.624,-1.6212,-1.6157,-1.6128,-1.6105,-1.6093,-1.6074,-1.6084,-1.609,-1.6071,-1.6071,-1.607,-1.6065,-1.6063,-1.6082,-1.6082,-1.6082,0,-1.6533,-1.6492,-1.6459,-1.6432,-1.641,-1.6379,-1.6355,-1.6329,-1.6279,-1.6263,-1.6259,-1.6188,-1.6157,-1.6115,-1.6113,-1.6096,-1.6087,-1.6089,-1.6074,-1.6073,-1.6072,-1.6066,-1.6064,-1.6083,-1.6083,-1.6083,-1.6083,0,-1.6511,-1.6482,-1.6469,-1.6422,-1.6398,-1.6372,-1.6335,-1.6314,-1.6295,-1.6268,-1.623,-1.6193,-1.6151,-1.614,-1.612,-1.6095,-1.6093,-1.6081,-1.6073,-1.6073,-1.6067,-1.6065,-1.6085,-1.6085,-1.6084,-1.6084,0,0,-1.653,-1.6465,-1.6461,-1.6438,-1.639,-1.6366,-1.6338,-1.6299,-1.6281,-1.6247,-1.6222,-1.6176,-1.6165,-1.6139,-1.6116,-1.6099,-1.6091,-1.6089,-1.6088,-1.609,-1.6059,-1.6067,-1.6065,-1.6078,-1.6077,-1.6077,-1.6062,0,-1.6523,-1.6473,-1.6443,-1.6405,-1.6377,-1.6347,-1.6322,-1.6289,-1.6263,-1.6234,-1.6205,-1.6172,-1.6161,-1.6145,-1.6128,-1.6096,-1.6084,-1.6096,-1.6053,-1.6051,-1.6064,-1.6062,-1.6071,-1.6059,-1.606,-1.6059,-1.6059,0,-1.6507,-1.6475,-1.6434,-1.6388,-1.6375,-1.6354,-1.6314,-1.6288,-1.6249,-1.6231,-1.6203,-1.6179,-1.6147,-1.6142,-1.6096,-1.6105,-1.6085,-1.6067,-1.6066,-1.606,-1.6055,-1.6055,-1.6054,-1.6052,-1.6055,-1.6055,-1.6056,0,-1.6524,-1.647,-1.6438,-1.642,-1.6366,-1.6351,-1.6328,-1.6289,-1.6267,-1.6232,-1.6216,-1.6178,-1.6157,-1.6127,-1.6092,-1.6092,-1.605,-1.6042,-1.6032,-1.6033,-1.6024,-1.6025,-1.6019,-1.6013,-1.6013,-1.6013,-1.6013,0,-1.6518,-1.6495,-1.6445,-1.6426,-1.6398,-1.6362,-1.6335,-1.6308,-1.6274,-1.6248,-1.6219,-1.6195,-1.6152,-1.6121,-1.6094,-1.606,-1.6051,-1.6034,-1.6027,-1.6036,-1.6038,-1.6022,-1.6022,-1.6013,-1.6013,-1.6013,-1.6013,0,-1.6532,-1.6498,-1.6462,-1.6413,-1.64,-1.6382,-1.6339,-1.6318,-1.6291,-1.6258,-1.6248,-1.6204,-1.6167,-1.613,-1.608,-1.6062,-1.6027,-1.6018,-1.6041,-1.6037,-1.6029,-1.603,-1.6012,-1.6007,-1.6005,-1.6006,-1.6006,0,-1.653,-1.6511,-1.6461,-1.6442,-1.6419,-1.6389,-1.6366,-1.633,-1.6307,-1.626,-1.6245,-1.6206,-1.6173,-1.6115,-1.6077,-1.6039,-1.6028,-1.6024,-1.6022,-1.6031,-1.6026,-1.6028,-1.6025,-1.6025,-1.6025,-1.6025,-1.6026,0,-1.6531,-1.6515,-1.6484,-1.6446,-1.642,-1.6389,-1.6356,-1.6342,-1.6299,-1.6275,-1.6237,-1.6212,-1.616,-1.6122,-1.6078,-1.6052,-1.6031,-1.6027,-1.6022,-1.6031,-1.6045,-1.6036,-1.6043,-1.6027,-1.6027,-1.6027,-1.6027,-1.6027,-1.6536,-1.6517,-1.6478,-1.6444,-1.6416,-1.6386,-1.6364,-1.6334,-1.6302,-1.6258,-1.6239,-1.62,-1.616,-1.61,-1.6074,-1.6043,-1.6037,-1.6031,-1.603,-1.6028,-1.603,-1.605,-1.6035,-1.6035,-1.6035,-1.6035,-1.6035,0,-1.6533,-1.6507,-1.6476,-1.6432,-1.6404,-1.6389,-1.6351,-1.6329,-1.6296,-1.6261,-1.623,-1.6185,-1.6147,-1.6107,-1.6066,-1.6049,-1.6038,-1.6039,-1.604,-1.6034,-1.6038,-1.6045,-1.6049,-1.6049,-1.6049,-1.6049,-1.6049,-1.6049,-1.6529,-1.6496,-1.6475,-1.6428,-1.6401,-1.6364,-1.6344,-1.6316,-1.6288,-1.624,-1.6209,-1.6183,-1.6145,-1.6102,-1.6065,-1.6054,-1.604,-1.6044,-1.603,-1.6035,-1.6034,-1.6033,-1.6039,-1.6041,-1.6041,-1.6028,-1.6028,-1.6028]},{"header":{"parameterUnit":"m.s-1","parameterCategory":1,"la1":30.2991,"la2":30.254,"lo1":-89.0895,"lo2":-89.0444,"dy":0.0017,"dx":0.0017,"nx":28,"ny":28,"refTime":"2023-07-22T21:00:00:Z","depth":0,"parameterNumber":3,"parameterNumberName":"V-component_of_WINDS"},"data":[0,0,0,0,0,0,0,0,0,0,0,0,0,0,0,0,0,0,0,0,0,0,0,0,0,0,0,0,0,0,0,0,0,0,0,0,0,0,0,0,0,0,0,0,0,0,0,0,0,0,0,0,0,0,0,0,0,0,3.1312,3.1311,0,3.1236,3.1235,3.1234,3.1192,3.1192,3.1192,3.1192,3.1108,3.1106,3.1104,0,0,0,0,0,0,0,0,0,0,0,0,0,3.1417,3.1415,3.1312,3.1311,3.131,3.1236,3.1235,3.1234,3.1192,3.1192,3.1192,3.1192,3.1108,3.1106,3.1103,0,0,0,0,0,0,0,0,0,0,0,0,0,3.1359,3.1415,3.1312,3.1281,3.1277,3.1236,3.1235,3.1234,3.1192,3.1192,3.1192,3.1192,3.1109,3.1106,3.1103,3.1086,0,0,3.1093,3.1092,0,0,0,0,0,0,0,0,3.1362,3.1355,3.1286,3.1283,3.1279,3.1224,3.1241,3.1184,3.1192,3.1224,3.1192,3.1192,3.1146,3.114,3.1125,3.1082,3.1078,3.1093,3.1091,3.1089,3.1088,0,0,0,0,0,0,0,3.1366,3.1358,3.1282,3.1285,3.1281,3.1269,3.126,3.123,3.1187,3.1222,3.1218,3.121,3.1144,3.1129,3.1123,3.1077,3.1093,3.109,3.1088,3.1087,3.1014,3.1014,0,0,0,0,0,0,3.1376,3.1362,3.1284,3.128,3.1321,3.1267,3.1258,3.1241,3.1187,3.1179,3.121,3.1209,3.1134,3.1127,3.112,3.1096,3.1089,3.1086,3.1085,3.1014,3.1014,3.1014,0,0,0,0,0,0,3.1379,3.137,3.1287,3.132,3.1308,3.1265,3.1247,3.124,3.1225,3.1179,3.117,3.1203,3.1134,3.1125,3.1095,3.1092,3.1085,3.1082,3.1014,3.1014,3.1014,3.1047,0,0,0,0,0,0,3.1382,3.1371,3.1365,3.132,3.1307,3.1265,3.1247,3.1239,3.122,3.1217,3.117,3.1162,3.1133,3.11,3.1092,3.1088,3.1079,3.1014,3.1014,3.1014,3.1046,3.1049,3.105,0,0,0,0,0,3.1386,3.1376,3.1365,3.1356,3.1299,3.1265,3.1257,3.1227,3.122,3.1213,3.1183,3.1163,3.1094,3.1097,3.1087,3.1083,3.1014,3.1014,3.1014,3.1045,3.1048,3.105,0,0,0,0,0,0,3.142,3.137,3.1357,3.1333,3.1304,3.1258,3.1248,3.123,3.1201,3.1199,3.116,3.115,3.1124,3.11,3.1104,3.1063,3.1052,3.105,3.1079,3.1081,3.1083,3.1089,3.1077,0,0,0,0,0,3.1425,3.1404,3.136,3.1343,3.1329,3.1292,3.1276,3.1255,3.1222,3.1209,3.1177,3.1145,3.1116,3.1097,3.1068,3.1043,3.1031,3.1035,3.1037,3.1039,3.1037,3.1022,3.1022,3.1014,3.1014,3.1014,0,0,3.1435,3.1405,3.1393,3.1349,3.1324,3.1301,3.1281,3.1258,3.124,3.1205,3.1175,3.1151,3.1112,3.1084,3.1071,3.1064,3.1037,3.1039,3.1041,3.1038,3.1022,3.1022,3.1023,3.1014,3.1014,3.1014,0,0,3.144,3.1416,3.1399,3.1375,3.1338,3.1313,3.1309,3.1267,3.125,3.122,3.1193,3.117,3.1121,3.1095,3.1075,3.1071,3.1051,3.1062,3.1073,3.1058,3.1059,3.1059,3.1057,3.1057,3.1061,3.1061,3.1061,0,3.1456,3.1422,3.1392,3.137,3.1351,3.1321,3.1303,3.128,3.1235,3.1222,3.1215,3.1154,3.1125,3.1091,3.109,3.1075,3.1068,3.1067,3.1061,3.1061,3.1061,3.1059,3.1058,3.1063,3.1063,3.1063,3.1062,0,3.1443,3.142,3.141,3.137,3.135,3.133,3.1295,3.1278,3.1259,3.1234,3.1203,3.1169,3.1132,3.1122,3.1103,3.1085,3.1082,3.1069,3.1057,3.1064,3.1061,3.106,3.1065,3.1065,3.1064,3.1064,0,0,3.1467,3.1411,3.1408,3.1389,3.1347,3.1327,3.1305,3.1271,3.1257,3.1227,3.1207,3.1166,3.1155,3.1132,3.1109,3.1096,3.1095,3.1085,3.1083,3.1087,3.1072,3.1082,3.1081,3.1082,3.1081,3.1081,3.1075,0,3.1466,3.1428,3.14,3.1371,3.1349,3.132,3.13,3.1271,3.1248,3.1224,3.1197,3.1169,3.1156,3.1142,3.1128,3.1098,3.1091,3.1098,3.106,3.1059,3.107,3.1079,3.1089,3.1085,3.1074,3.1074,3.1073,0,3.146,3.1433,3.1402,3.1362,3.1352,3.1335,3.1302,3.128,3.1246,3.1229,3.1205,3.1182,3.1156,3.1147,3.111,3.1115,3.1098,3.1081,3.108,3.1075,3.1066,3.1073,3.1083,3.1082,3.1071,3.1071,3.1072,0,3.1479,3.1435,3.1411,3.1396,3.1349,3.1338,3.1317,3.1284,3.1265,3.1235,3.1222,3.1189,3.1171,3.1145,3.1113,3.111,3.1078,3.1067,3.1062,3.1063,3.1056,3.1057,3.1063,3.1047,3.1047,3.1047,3.1047,0,3.148,3.1463,3.1419,3.1405,3.1383,3.1351,3.1331,3.1308,3.1278,3.1257,3.1229,3.121,3.1169,3.1144,3.1118,3.1091,3.1083,3.1067,3.1061,3.1069,3.1071,3.1057,3.1056,3.1047,3.1047,3.1047,3.1047,0,3.1498,3.1469,3.1441,3.1399,3.1388,3.1375,3.1338,3.1322,3.1297,3.1271,3.1263,3.1223,3.1192,3.1158,3.1115,3.1098,3.1072,3.1063,3.1084,3.108,3.1077,3.1077,3.1072,3.107,3.1057,3.1057,3.1058,0,3.15,3.1486,3.1444,3.1429,3.141,3.1386,3.1367,3.1335,3.1316,3.1277,3.1265,3.1232,3.1205,3.1156,3.1122,3.1089,3.1079,3.1079,3.1073,3.1082,3.1077,3.1078,3.1076,3.1081,3.1081,3.1081,3.1081,0,3.1507,3.1494,3.1469,3.1439,3.1418,3.1393,3.1366,3.1354,3.1316,3.1297,3.1266,3.1245,3.1202,3.1169,3.1132,3.1109,3.1088,3.1084,3.1081,3.1089,3.1102,3.1094,3.1088,3.1084,3.1084,3.1083,3.1083,3.1083,3.1516,3.1503,3.1471,3.1444,3.1421,3.1397,3.138,3.1354,3.1328,3.1292,3.1274,3.1243,3.1209,3.1157,3.1135,3.1109,3.1102,3.1098,3.1097,3.1096,3.1098,3.1107,3.1102,3.1102,3.1102,3.1102,3.1102,0,3.1521,3.15,3.1476,3.144,3.1418,3.1404,3.1373,3.1356,3.133,3.13,3.1274,3.1238,3.1207,3.1172,3.1137,3.1124,3.1113,3.1115,3.1116,3.111,3.1106,3.1112,3.1125,3.1125,3.1125,3.1125,3.1125,3.1125,3.1521,3.1497,3.1479,3.1443,3.1421,3.1392,3.1376,3.1353,3.1329,3.1292,3.1266,3.1244,3.1212,3.1175,3.1145,3.1135,3.1124,3.1129,3.1116,3.1113,3.1111,3.1109,3.1114,3.1127,3.1127,3.1122,3.1122,3.1122]}]]